Location: *
(51.4660°N, 0.3360°W)
Time: 10:08:01
(UTC+00:00)

CZ-4C R/B - Pass Details

Date: 19 September 2019
Orbit: 654 x 1348 km, 63.4° (Epoch: 15 October)

Event Time Altitude Azimuth Distance (km) Brightness Sun altitude
Rises 19:16:53 0° 280° (W) 3,349 7.4 -11.5°
Reaches altitude 10° 19:19:30 10° 291° (WNW) 2,517 6.2 -11.9°
Maximum altitude 19:24:38 30° 352° (N) 1,680 4.0 -12.6°
Drops below altitude 10° 19:30:37 10° 52° (NE) 2,954 4.7 -13.5°
Enters shadow 19:33:22 - 61° (ENE) 3,840 5.2 -13.9°
